Regional Weather Roundup
Issued by NWS

Home | Current Version | Previous Version | Graphics & Text | Print | Product List | Glossary Off
Versions: 1 2 3 4 5 6 7 8 9 10 11 12 13 14 15 16 17 18 19 20 21 22 23 24 25 26 27 28 29 30 31 32 33 34 35 36 37 38 39 40 41 42 43 44 45 46 47 48 49 50

000
ASUS43 KDMX 220201
RWRIA

WEATHER ROUNDUP FOR IOWA
NATIONAL WEATHER SERVICE DES MOINES IA
900 PM CDT MON MAY 21 2018

NOTE: "FAIR" INDICATES FEW OR NO CLOUDS BELOW 12,000 FEET WITH NO
SIGNIFICANT WEATHER AND/OR OBSTRUCTIONS TO VISIBILITY.

* - THESE STATIONS ARE NOT NWS STATIONS...THUS NOT UNDER NWS
QUALITY CONTROL.  THEY ALSO DO NOT REPORT WEATHER SUCH
AS PRECIPITATION OR FOG.

IAZ001>003-012>014-020>022-031>034-043>046-220300-
   NORTHWEST IOWA

CITY           SKY/WX    TMP DP  RH WIND       PRES   REMARKS
CARROLL *      CLEAR    N/A N/A N/A CALM      29.98S
CHEROKEE *     CLEAR     62  59  91 CALM      29.98S
DENISON *      CLEAR     63  57  82 E5        30.00R
LE MARS *      CLEAR     66  57  72 E3        29.97S
ORANGE CITY *  CLEAR     64  61  88 CALM      29.99R
SHELDON *      CLEAR     61  61 100 NE5       29.97F
SIOUX CITY     CLEAR     64  57  78 E6        29.96R
SPENCER        PTCLDY    61  58  90 E6        29.99S
STORM LAKE *   CLEAR     63  59  88 CALM      29.99S FOG
$$

IAZ055>058-069>071-079>083-090>094-220300-
   SOUTHWEST IOWA

CITY           SKY/WX    TMP DP  RH WIND       PRES   REMARKS
ATLANTIC *     CLEAR     64  57  77 N3        29.99R
AUDUBON *      CLEAR     61  55  82 CALM      30.00S
CLARINDA *     CLEAR     66  55  68 CALM      29.99S
COUNCIL BLFS * CLEAR     66  64  94 E7        29.97R
CRESTON *      CLEAR     64  55  72 N8        30.00R
HARLAN  *      CLEAR     64  59  82 CALM      30.01S
LAMONI         CLEAR     66  60  81 S6        29.98S
RED OAK *      CLEAR     68  54  60 NE3       29.98R
SHENANDOAH *   CLEAR     70  55  60 NE5       29.97S
$$

IAZ047>049-059>061-072>074-084-220300-
   CENTRAL IOWA

CITY           SKY/WX    TMP DP  RH WIND       PRES   REMARKS
AMES           MOCLDY    64  60  87 CALM      29.98R
ANKENY *       CLOUDY    64  63  94 CALM      29.98R
BOONE *        MOCLDY    63  61  94 N6        29.98R
CHARITON *     CLEAR     66  63  88 S3        29.98R
DES MOINES     MOCLDY    69  61  75 E5        29.97R
GRINNELL*      CLEAR     61  59  92 CALM      30.00R
KNOXVILLE *    PTCLDY    66  61  82 CALM      29.97R
MARSHALLTOWN   CLOUDY    63  61  93 N3        29.98R
NEWTON *       CLEAR     63  61  94 E3        29.98R
PELLA *        CLEAR     64  61  88 CALM      29.99R
PERRY *        CLOUDY    67  58  74 W5        29.99R
$$

IAZ004>006-015-016-023>025-035-036-220300-
   NORTH CENTRAL IOWA

CITY           SKY/WX    TMP DP  RH WIND       PRES   REMARKS
ALGONA *       CLOUDY    63  59  88 E5        29.99S
CLARION *      CLOUDY    63  59  88 CALM      29.99S
ESTHERVILLE    CLOUDY    60  58  92 CALM      29.99R
FORT DODGE *   MOCLDY    63  60  90 NE3       29.99S
MASON CITY     CLOUDY    60  57  89 CALM      30.01S
FOREST CITY *  CLOUDY    61  61 100 CALM      29.99F
WEBSTER CITY * CLOUDY    63  61  94 CALM      29.97S
IOWA FALLS *   CLOUDY    63  60  90 NE3       30.00S
$$

IAZ007>011-017>019-026>030-037>042-050>054-066-220300-
   NORTHEAST IOWA

CITY           SKY/WX    TMP DP  RH WIND       PRES   REMARKS
CEDAR RAPIDS   CLOUDY    62  59  90 NW6       29.98R
CHARLES CITY * CLOUDY    59  55  88 CALM      29.99F
CLINTON *        N/A    N/A N/A N/A N5        29.98S HAZE
DECORAH *      CLOUDY    57  57 100 CALM      29.98S FOG
DUBUQUE        FOG       60  59  96 E5        29.98S VSB 3/4
MONTICELLO *   CLOUDY    63  63 100 CALM      29.98R
OELWEIN *      CLOUDY    61  59  94 CALM      29.99S
WATERLOO       CLOUDY    60  59  96 N5        29.98S
$$

IAZ064-065-067-068-078-220300-
   EAST CENTRAL IOWA

CITY           SKY/WX    TMP DP  RH WIND       PRES   REMARKS
DAVENPORT      FAIR      64  62  93 NW3       29.99S FOG
IOWA CITY      CLOUDY    65  60  84 W3        30.00R
MUSCATINE *    FAIR      64  61  88 NW5       29.99R
QUAD CITIES    FAIR      68  63  84 NW6       29.97R
$$

IAZ062-063-075>077-085>089-095>099-220300-
   SOUTHEAST IOWA

CITY           SKY/WX    TMP DP  RH WIND       PRES   REMARKS
BURLINGTON     CLEAR     69  61  75 N6        29.97R
FAIRFIELD *    CLEAR     64  61  88 NE5       29.99R
FORT MADISON * CLEAR     68  63  83 CALM      29.99R
KEOKUK *       CLOUDY    70  63  78 CALM      29.97R
OSKALOOSA *    FAIR      64  61  91 E5        29.99R
CENTERVILLE *    N/A     68  66  94 CALM      30.00R
OTTUMWA        CLEAR     66  60  81 NE6       29.98R
WASHINGTON *   CLEAR     63  63 100 N3        30.00R
$$

ABBREVIATIONS USED IN REMARKS
   TC - TEMPERATURES IN CELSIUS
  WCI - WIND CHILL INDEX
   HX - HEAT INDEX
  VSB - VISIBILITY
$$





USA.gov is the U.S. government's official web portal to all federal, state and local government web resources and services.